Time,TemperatureF,DewpointF,PressureIn,WindDirection,WindDirectionDegrees,WindSpeedMPH,WindSpeedGustMPH,Humidity,HourlyPrecipIn,Conditions,Clouds,dailyrainin,SolarRadiationWatts/m^2,SoftwareType,DateUTC
2013-09-14 00:12:00,66.0,61.0,30.03,West,277,5.0,6.0,86,-99.99,,,-99.99,0.000000,,2013-09-14 06:12:00,
2013-09-14 00:42:00,66.0,60.0,30.03,West,270,5.0,11.0,83,-99.99,,,-99.99,0.000000,,2013-09-14 06:42:00,
2013-09-14 00:52:00,66.0,60.0,30.03,West,270,5.0,11.0,83,-99.99,,,-99.99,0.000000,,2013-09-14 06:52:00,
2013-09-14 01:02:00,66.0,60.0,30.03,West,270,5.0,11.0,83,-99.99,,,-99.99,0.000000,,2013-09-14 07:02:00,
2013-09-14 01:42:00,64.0,61.0,30.03,WNW,288,6.0,8.0,90,-99.99,,,-99.99,0.000000,,2013-09-14 07:42:00,
2013-09-14 02:12:00,64.0,62.0,30.02,WNW,298,7.0,9.0,90,-99.99,,,-99.99,0.000000,,2013-09-14 08:12:00,
2013-09-14 02:22:00,64.0,62.0,30.02,WNW,298,7.0,9.0,90,-99.99,,,-99.99,0.000000,,2013-09-14 08:22:00,
2013-09-14 02:42:00,65.0,61.0,30.02,West,277,6.0,8.0,87,-99.99,,,-99.99,0.000000,,2013-09-14 08:42:00,
2013-09-14 02:52:00,65.0,60.0,30.02,West,262,6.0,8.0,85,-99.99,,,-99.99,0.000000,,2013-09-14 08:52:00,
2013-09-14 03:02:00,65.0,60.0,30.02,West,262,6.0,8.0,85,-99.99,,,-99.99,0.000000,,2013-09-14 09:02:00,
2013-09-14 03:21:00,64.0,61.0,30.02,West,260,5.0,6.0,88,-99.99,,,-99.99,0.000000,,2013-09-14 09:21:00,
2013-09-14 03:43:00,64.0,61.0,30.01,NW,313,4.0,5.0,91,-99.99,,,-99.99,0.000000,,2013-09-14 09:43:00,
2013-09-14 04:42:00,64.0,62.0,30.01,NNE,30,1.0,2.0,93,-99.99,,,-99.99,0.000000,,2013-09-14 10:42:00,
2013-09-14 05:42:00,63.0,62.0,30.01,ESE,113,1.0,3.0,95,-99.99,,,-99.99,0.000000,,2013-09-14 11:42:00,
2013-09-14 06:12:00,63.0,62.0,30.02,East,97,1.0,3.0,96,-99.99,,,-99.99,0.000000,,2013-09-14 12:12:00,
2013-09-14 06:42:00,63.0,62.0,30.02,SE,126,1.0,3.0,97,-99.99,,,-99.99,0.000000,,2013-09-14 12:42:00,
2013-09-14 06:52:00,63.0,62.0,30.02,SE,126,1.0,3.0,97,-99.99,,,-99.99,0.000000,,2013-09-14 12:52:00,
2013-09-14 07:12:00,63.0,62.0,30.03,SE,132,2.0,3.0,97,-99.99,,,-99.99,0.000000,,2013-09-14 13:12:00,
2013-09-14 07:42:00,62.0,62.0,30.03,SSE,153,2.0,3.0,98,-99.99,,,-99.99,12.550000,,2013-09-14 13:42:00,
2013-09-14 07:52:00,62.0,62.0,30.03,SSE,153,2.0,3.0,98,-99.99,,,-99.99,12.550000,,2013-09-14 13:52:00,
2013-09-14 08:02:00,62.0,62.0,30.03,SSE,153,2.0,3.0,98,-99.99,,,-99.99,12.550000,,2013-09-14 14:02:00,
2013-09-14 08:42:00,64.0,63.0,30.04,NNW,340,1.0,3.0,96,-99.99,,,-99.99,117.150002,,2013-09-14 14:42:00,
2013-09-14 08:52:00,65.0,63.0,30.04,NNW,338,2.0,3.0,92,-99.99,,,-99.99,94.139999,,2013-09-14 14:52:00,
2013-09-14 09:02:00,65.0,63.0,30.04,NNW,338,2.0,3.0,92,-99.99,,,-99.99,94.139999,,2013-09-14 15:02:00,
2013-09-14 09:43:00,68.0,64.0,30.06,East,95,3.0,5.0,86,-99.99,,,-99.99,233.610001,,2013-09-14 15:43:00,
2013-09-14 09:53:00,68.0,64.0,30.06,East,95,3.0,5.0,86,-99.99,,,-99.99,233.610001,,2013-09-14 15:53:00,
2013-09-14 10:13:00,69.0,62.0,30.06,East,100,4.0,5.0,80,-99.99,,,-99.99,222.449997,,2013-09-14 16:13:00,
2013-09-14 10:44:00,69.0,62.0,30.07,East,91,5.0,8.0,77,-99.99,,,-99.99,325.649994,,2013-09-14 16:44:00,
2013-09-14 10:54:00,69.0,62.0,30.07,East,91,5.0,8.0,77,-99.99,,,-99.99,325.649994,,2013-09-14 16:54:00,
2013-09-14 11:03:00,69.0,62.0,30.07,East,91,5.0,8.0,77,-99.99,,,-99.99,325.649994,,2013-09-14 17:03:00,
2013-09-14 11:43:00,73.0,59.0,30.06,ENE,58,5.0,8.0,61,-99.99,,,-99.99,653.400024,,2013-09-14 17:43:00,
2013-09-14 11:54:00,73.0,59.0,30.06,ENE,58,5.0,8.0,61,-99.99,,,-99.99,653.400024,,2013-09-14 17:54:00,
2013-09-14 12:02:00,73.0,59.0,30.06,ENE,58,5.0,8.0,61,-99.99,,,-99.99,653.400024,,2013-09-14 18:02:00,
2013-09-14 13:11:00,74.0,56.0,30.05,ENE,64,6.0,9.0,54,-99.99,,,-99.99,423.980011,,2013-09-14 19:11:00,
2013-09-14 13:42:00,77.0,57.0,30.03,ENE,57,6.0,12.0,49,-99.99,,,-99.99,904.440002,,2013-09-14 19:42:00,
2013-09-14 14:12:00,78.0,57.0,30.02,ESE,103,7.0,12.0,47,-99.99,,,-99.99,826.340027,,2013-09-14 20:12:00,
2013-09-14 14:42:00,78.0,57.0,30.01,ESE,112,6.0,12.0,48,-99.99,,,-99.99,783.109985,,2013-09-14 20:42:00,
2013-09-14 15:11:00,79.0,56.0,30.00,ESE,122,8.0,14.0,46,-99.99,,,-99.99,735.690002,,2013-09-14 21:11:00,
2013-09-14 15:44:00,79.0,56.0,29.98,SE,129,7.0,14.0,44,-99.99,,,-99.99,655.489990,,2013-09-14 21:44:00,
2013-09-14 16:42:00,80.0,56.0,29.96,SE,138,7.0,11.0,44,-99.99,,,-99.99,544.619995,,2013-09-14 22:42:00,
2013-09-14 16:53:00,80.0,56.0,29.96,SE,132,7.0,13.0,44,-99.99,,,-99.99,510.450012,,2013-09-14 22:53:00,
2013-09-14 17:03:00,80.0,56.0,29.96,SE,132,7.0,13.0,44,-99.99,,,-99.99,510.450012,,2013-09-14 23:03:00,
2013-09-14 17:42:00,80.0,57.0,29.96,SE,144,7.0,11.0,46,-99.99,,,-99.99,339.600006,,2013-09-14 23:42:00,
2013-09-14 17:53:00,79.0,57.0,29.96,SSE,154,6.0,10.0,48,-99.99,,,-99.99,125.519997,,2013-09-14 23:53:00,
2013-09-14 18:02:00,79.0,57.0,29.96,SSE,154,6.0,10.0,48,-99.99,,,-99.99,125.519997,,2013-09-15 00:02:00,
2013-09-14 18:42:00,78.0,56.0,29.96,ESE,116,7.0,10.0,47,-99.99,,,-99.99,69.040001,,2013-09-15 00:42:00,
2013-09-14 19:22:00,78.0,58.0,29.97,ESE,112,6.0,8.0,50,-99.99,,,-99.99,66.250000,,2013-09-15 01:22:00,
2013-09-14 19:42:00,76.0,60.0,29.97,ESE,117,4.0,7.0,59,-99.99,,,-99.99,24.410000,,2013-09-15 01:42:00,
2013-09-14 20:42:00,72.0,59.0,29.98,SE,131,3.0,4.0,65,-99.99,,,-99.99,0.000000,,2013-09-15 02:42:00,
2013-09-14 20:52:00,70.0,60.0,29.99,South,189,2.0,4.0,69,-99.99,,,-99.99,0.000000,,2013-09-15 02:52:00,
2013-09-14 21:02:00,70.0,60.0,29.99,South,189,2.0,4.0,69,-99.99,,,-99.99,0.000000,,2013-09-15 03:02:00,
2013-09-14 21:44:00,72.0,57.0,30.00,SE,137,7.0,15.0,58,-99.99,,,-99.99,0.000000,,2013-09-15 03:44:00,
2013-09-14 22:02:00,-999.0,-99.9,30.01,East,97,4.0,6.0,-999,-99.99,,,-99.99,,,2013-09-15 04:02:00,
2013-09-14 22:14:00,72.0,57.0,30.01,East,97,4.0,6.0,58,-99.99,,,-99.99,0.000000,,2013-09-15 04:14:00,
2013-09-14 22:43:00,69.0,59.0,30.01,SSE,149,2.0,5.0,69,-99.99,,,-99.99,0.000000,,2013-09-15 04:43:00,
2013-09-14 23:42:00,66.0,58.0,30.02,West,278,6.0,9.0,73,-99.99,,,-99.99,0.000000,,2013-09-15 05:42:00,